#timestamp,LO_Frequency,Hit,StdDev 
1603634415.6,286046985.4,N
1603634435.5,286046987.6,N
1603634455.3,286046988.9,N
1603634475.1,286046994.2,N
1603634495.9,286046992.9,N
1603634515.7,286046995.4,N
1603634535.6,286046999.1,N
1603634555.4,286047002.4,N
1603634575.2,286047005.3,N
1603634595.1,286046999.7,N
1603634596.0,286046999.7,N
1603634615.8,286047005.9,N
1603634635.6,286047003.3,N
1603634655.5,286047003.0,N
1603634675.3,286047005.2,N
1603634695.2,286047005.5,N
1603634715.9,286047004.6,N
1603634735.7,286047006.0,N
1603634755.6,286047004.6,N
1603634775.4,286047007.5,N
1603634795.2,286047002.9,N
1603634815.1,286047002.1,N
1603634816.0,286047002.1,N
1603634835.8,286047002.6,N
1603634855.7,286047001.8,N
1603634875.5,286047000.0,N
1603634895.3,286047000.9,N
1603634915.2,286047000.0,N
1603634935.0,286047005.9,N
1603634935.9,286047005.9,N
1603634955.7,286047003.5,N
1603634975.6,286047003.3,N
1603634995.4,286047005.9,N
1603635015.3,286047007.3,N
1603635035.1,286047008.9,N
1603635036.0,286047008.9,Y
1603635055.8,286047008.3,P
1603635075.7,286047012.4,P
1603635095.5,286047010.9,N
1603635115.4,286047013.9,Y
1603635135.2,286047002.1,P
1603635155.0,286046999.3,N
1603635155.9,286046999.3,N
1603635175.8,286046993.9,N
1603635195.6,286046994.5,N
1603635215.4,286046994.9,N
1603635235.3,286046997.5,N
1603635255.1,286046994.7,N
1603635275.9,286046993.3,N
1603635295.7,286046997.4,N
1603635315.5,286046996.7,N
1603635335.4,286046992.3,N
1603635385.2,286046974.9,E
1603635395.2,286046986.9,N
1603635415.9,286047005.4,P
1603635435.7,286047003.7,N
1603635455.6,286047010.7,N
1603635475.4,286047016.4,N
1603635495.2,286047018.0,N
1603635515.1,286047015.2,N
1603635516.0,286047015.2,N
1603635535.8,286047015.4,N
1603635555.7,286047014.5,N
1603635575.5,286047016.4,N
1603635595.3,286047014.2,N
1603635615.2,286047014.7,N
1603635635.0,286047013.1,N
1603635635.9,286047013.1,N
1603635655.7,286047015.6,N
1603635675.6,286047012.6,N
1603635695.4,286047015.3,N
1603635715.3,286047018.8,N
1603635735.1,286047015.5,N
1603635736.0,286047015.5,N
1603635755.8,286047015.4,N
1603635775.7,286047016.4,N
1603635795.5,286047017.0,N
1603635815.3,286047018.2,N
1603635835.2,286047018.8,N
1603635855.0,286047013.5,N
1603635855.9,286047013.5,N
1603635875.8,286047010.2,N
1603635895.6,286047009.6,N
1603635915.4,286047017.1,N
1603635935.3,286047014.9,Y
1603635955.1,286047000.2,P
1603635975.8,286047002.8,N
1603635995.7,286047004.3,N
1603636015.5,286047001.3,N
1603636035.4,286047002.5,N
1603636055.2,286047003.2,N
1603636075.0,286047003.7,N
1603636075.9,286047003.7,N
1603636095.8,286047005.3,N
1603636115.6,286047005.4,N
1603636135.5,286047006.9,N
1603636155.3,286047005.8,N
1603636175.1,286047004.4,N
1603636195.9,286047004.1,N
1603636215.7,286047003.4,N
1603636235.5,286047003.4,N
1603636255.4,286047005.5,N
1603636275.2,286047006.0,N
1603636295.0,286047005.0,N
1603636296.0,286047005.0,N
1603636315.8,286047009.1,Y
1603636335.6,286047002.2,P
1603636355.5,286047002.7,N
1603636375.3,286046999.7,N
1603636395.1,286047001.7,N
1603636415.9,286047001.9,N
1603636435.7,286047007.6,Y
1603636455.6,286046995.4,P
1603636475.4,286046997.6,N
1603636495.2,286046994.5,N
1603636515.1,286046994.5,N
1603636516.0,286046994.5,N
1603636535.8,286046993.6,N
1603636555.6,286046993.4,N
1603636575.5,286046992.9,N
1603636595.3,286046992.1,N
1603636615.2,286046992.6,N
1603636635.9,286046990.7,Y
1603636655.7,286046997.5,P
1603636675.6,286046997.7,N
1603636695.4,286046996.2,N
1603636715.3,286046992.2,Y
1603636735.1,286046997.6,P
1603636736.0,286046997.6,P
1603636755.8,286046999.6,N
1603636775.7,286046999.3,N
1603636795.5,286046997.0,N
1603636815.3,286046997.4,N
1603636835.2,286046996.2,Y
1603636855.0,286046995.9,P
1603636855.9,286046995.9,P
1603636875.8,286046992.5,P
1603636895.6,286046989.7,Y
1603636915.5,286046992.3,P
1603636935.3,286046995.7,N
1603636955.1,286046999.5,N
1603636975.9,286047000.8,N
1603636995.7,286047001.7,N
1603637015.5,286047001.8,N
1603637035.4,286047001.9,N
1603637055.2,286047004.1,N
1603637075.1,286047002.5,N
1603637076.0,286047002.5,N
1603637095.8,286047002.1,N
1603637115.6,286047001.3,N
1603637135.5,286046999.8,N
1603637155.3,286047001.0,N
1603637175.2,286047000.3,N
1603637195.9,286047002.8,N
1603637215.7,286047005.8,N
1603637235.6,286047005.7,N
1603637255.4,286047005.0,N
1603637275.2,286047002.0,N
1603637295.1,286047001.3,N
1603637296.0,286047001.3,N
1603637315.8,286047004.2,N
1603637335.7,286047003.1,N
1603637355.5,286047003.5,N
1603637375.3,286047004.3,N
1603637395.2,286047001.6,N
1603637415.0,286047000.6,N
1603637415.9,286047000.6,N
1603637435.8,286046999.6,N
1603637455.6,286046999.9,N
1603637475.4,286047001.5,N
1603637495.3,286047005.9,Y
1603637515.1,286047000.6,P
1603637535.8,286046999.7,N
1603637555.7,286047004.2,P
1603637575.5,286047002.9,N
1603637595.4,286047004.8,N
1603637615.2,286047005.0,N
1603637635.0,286047005.8,Y
1603637635.9,286047005.8,P
1603637655.8,286047001.7,N
1603637675.6,286047003.8,N
1603637695.5,286047005.5,Y
1603637715.3,286047003.1,P
1603637735.1,286047001.5,P
1603637755.9,286047000.2,N
1603637775.7,286047002.4,N
1603637795.5,286047001.4,N
1603637815.4,286047001.5,N
1603637835.2,286047001.3,N
1603637855.1,286047000.0,N
1603637856.0,286047000.0,N
1603637875.8,286047000.2,N
1603637895.6,286047000.0,N
1603637915.5,286047000.2,N
1603637935.3,286047000.0,N
1603637955.1,286047000.1,N
1603637975.9,286046999.7,N
1603637995.7,286047000.1,N
